Date_and_time,latitude,longitude,wind_speed,RelWindDirFrom,WindDirFrom,air_pressure,air_temperature,relative_humidity,Temp,platform_speed_wrt_ground,air_pressure_at_mean_sea_level,platform_orientation
2018-10-15 23:50,50.6304183333333,-96.9807483333333,7.0,11.2,255,978.84,3.6,79,3.46,0.0,1006.11,38.0
2018-10-16 00:00,50.63042,-96.9807433333333,7.6,11.2,254,978.90,3.4,80,3.47,0.0,1006.17,54.7
2018-10-16 00:00,50.63042,-96.9807433333333,7.9,8.0,284,978.93,3.5,80,3.47,0.0,1006.20,138.8
2018-10-16 00:10,50.6304216666667,-96.9807433333333,8.4,12.7,257,978.94,3.6,79,3.47,0.0,1006.20,138.8
2018-10-16 00:20,50.6304316666667,-96.98075,8.5,13.1,258,979.03,3.8,79,3.47,0.0,1006.27,138.8
2018-10-16 00:30,50.6304283333333,-96.9807483333333,6.7,11.6,270,978.94,4.0,80,3.48,0.0,1006.18,138.8
2018-10-16 00:40,50.630425,-96.9807483333333,6.8,9.7,266,978.93,4.1,80,3.48,0.0,1006.16,138.8
2018-10-16 00:50,50.630425,-96.9807483333333,5.6,8.3,269,979.07,3.8,82,3.47,0.0,1006.31,138.8
2018-10-16 01:00,50.6304233333333,-96.9807483333333,5.9,8.7,267,979.05,3.6,83,3.47,0.0,1006.30,90.0
2018-10-16 01:10,50.6304216666667,-96.9807483333333,5.8,9.0,263,979.07,3.5,84,3.47,0.0,1006.32,90.0
2018-10-16 01:20,50.6304116666667,-96.9807683333333,4.4,6.1,260,979.08,3.4,85,3.45,0.0,1006.34,90.0
2018-10-16 01:30,50.63041,-96.9807566666667,4.5,7.0,250,979.02,3.3,86,3.43,0.0,1006.29,90.0
2018-10-16 01:40,50.63043,-96.98081,4.9,7.5,250,979.06,3.3,87,3.43,0.0,1006.33,90.0
2018-10-16 01:50,50.6304183333333,-96.98076,5.4,7.9,250,979.01,3.3,88,3.44,0.0,1006.27,90.0
2018-10-16 02:00,50.630425,-96.980755,5.5,8.2,258,979.05,3.4,87,3.44,0.0,1006.31,305.3
2018-10-16 02:10,50.6304266666667,-96.9807566666667,5.1,7.0,254,978.90,3.5,87,3.44,0.0,1006.14,305.3
2018-10-16 02:20,50.6304266666667,-96.980755,5.8,8.0,248,978.96,3.5,88,3.44,0.0,1006.20,305.3
2018-10-16 02:30,50.630415,-96.98077,5.4,7.3,250,978.94,3.5,88,3.44,0.0,1006.17,305.3
2018-10-16 02:40,50.63042,-96.9807666666667,4.7,6.4,248,978.89,3.6,88,3.44,0.0,1006.12,305.3
2018-10-16 02:50,50.6304166666667,-96.9807633333333,5.0,7.2,256,979.10,3.6,88,3.43,0.0,1006.35,305.3
2018-10-16 03:00,50.6304166666667,-96.9807616666667,4.5,7.1,261,979.18,3.6,88,3.42,0.0,1006.43,234.7
2018-10-16 03:10,50.6304183333333,-96.9807633333333,5.1,8.0,258,979.33,3.6,89,3.42,0.0,1006.60,234.7
2018-10-16 03:20,50.6304083333333,-96.9807466666667,6.5,9.9,258,979.53,3.7,89,3.43,0.0,1006.81,234.7
2018-10-16 03:30,50.6304166666667,-96.9807566666667,8.0,12.7,267,979.53,4.2,86,3.45,0.0,1006.78,234.7
2018-10-16 03:40,50.6304166666667,-96.98075,8.9,12.4,265,979.61,4.6,83,3.46,0.0,1006.85,234.7
2018-10-16 03:50,50.6304216666667,-96.9807516666667,8.8,14.6,272,979.63,4.7,80,3.45,0.0,1006.85,234.7
2018-10-16 04:00,50.63042,-96.9807466666667,9.5,17.1,285,979.58,4.8,80,3.43,0.0,1006.79,167.4
2018-10-16 04:10,50.6304183333333,-96.9807483333333,8.7,14.6,291,979.64,4.7,78,3.42,0.0,1006.86,167.4
2018-10-16 04:20,50.630395,-96.9807216666667,9.4,15.6,293,979.64,4.7,73,3.42,0.0,1006.86,167.4
2018-10-16 04:30,50.6304116666667,-96.9807616666667,8.2,13.8,297,979.76,4.6,73,3.42,0.0,1006.98,167.4
2018-10-16 04:40,50.630415,-96.980745,7.1,11.3,292,979.84,4.4,72,3.43,0.0,1007.07,167.4
2018-10-16 04:50,50.630425,-96.980765,6.4,10.3,286,980.01,4.3,73,3.44,0.0,1007.25,167.4
2018-10-16 05:00,50.63042,-96.98076,6.9,12.1,288,980.03,4.3,72,3.46,0.0,1007.27,360.0
2018-10-16 05:10,50.6303866666667,-96.9807483333333,7.1,11.0,282,980.20,4.3,73,3.47,0.0,1007.45,360.0
2018-10-16 05:20,50.6304333333333,-96.9807616666667,7.7,14.8,275,980.37,4.2,74,3.47,0.0,1007.60,360.0
2018-10-16 05:30,50.6304316666667,-96.9807566666667,10.9,17.1,289,980.23,4.3,71,3.45,0.0,1007.43,360.0
2018-10-16 05:40,50.63043,-96.9807533333333,9.6,16.0,288,980.36,4.3,70,3.45,0.0,1007.56,360.0
2018-10-16 05:50,50.63043,-96.9807516666667,7.8,13.6,292,980.47,4.2,71,3.45,0.0,1007.67,360.0
2018-10-16 06:00,50.6304283333333,-96.9807483333333,8.7,15.7,283,980.57,4.1,71,3.46,0.0,1007.78,14.5
2018-10-16 06:10,50.630415,-96.980735,11.4,17.8,295,980.53,4.1,69,3.47,0.0,1007.74,14.5
2018-10-16 06:20,50.63042,-96.980745,9.9,18.0,298,980.76,4.1,69,3.46,0.0,1007.99,14.5
2018-10-16 06:30,50.6304216666667,-96.9807466666667,8.7,19.0,292,980.92,4.0,69,3.44,0.0,1008.17,14.5
2018-10-16 06:40,50.6304216666667,-96.9807516666667,9.5,17.9,292,980.97,3.9,69,3.42,0.0,1008.22,14.5
2018-10-16 06:50,50.6304233333333,-96.9807466666667,11.8,18.4,295,980.96,3.9,67,3.41,0.0,1008.21,14.5
2018-10-16 07:00,50.630425,-96.9807466666667,12.9,20.7,296,981.09,3.7,67,3.40,0.0,1008.36,360.0
2018-10-16 07:10,50.630425,-96.980745,14.9,23.3,303,981.15,3.6,65,3.40,0.0,1008.43,360.0
2018-10-16 07:20,50.6304266666667,-96.9807466666667,14.8,23.8,314,981.25,3.4,62,3.40,0.0,1008.54,360.0
2018-10-16 07:30,50.630425,-96.9807483333333,12.0,22.6,304,981.53,3.2,64,3.39,0.0,1008.84,360.0
2018-10-16 07:40,50.6304266666667,-96.9807483333333,12.7,21.4,304,981.53,3.1,64,3.40,0.0,1008.84,360.0
2018-10-16 07:50,50.6304266666667,-96.9807483333333,14.4,21.7,307,981.56,3.0,64,3.40,0.0,1008.88,360.0
2018-10-16 08:00,50.6304283333333,-96.98075,13.9,24.4,310,981.75,2.9,64,3.39,0.0,1009.09,48.3
2018-10-16 08:10,50.6304283333333,-96.98074,14.3,21.7,314,981.93,2.8,63,3.39,0.0,1009.27,48.3
2018-10-16 08:20,50.63043,-96.9807416666667,13.0,21.1,318,982.18,2.7,64,3.39,0.0,1009.55,48.3
2018-10-16 08:30,50.6304283333333,-96.9807416666667,13.9,22.5,314,982.33,2.4,65,3.39,0.0,1009.71,48.3
2018-10-16 08:40,50.6304266666667,-96.9807433333333,12.1,18.5,316,982.62,2.2,66,3.38,0.0,1010.03,48.3
2018-10-16 08:50,50.630425,-96.9807416666667,12.0,18.0,309,982.75,2.1,66,3.38,0.0,1010.18,48.3
2018-10-16 09:00,50.630425,-96.980745,11.8,17.1,307,982.91,2.0,67,3.37,0.0,1010.35,90.0
2018-10-16 09:10,50.630425,-96.9807433333333,14.5,22.5,313,982.96,1.9,70,3.36,0.0,1010.42,90.0
2018-10-16 09:20,50.630425,-96.9807433333333,13.3,22.4,315,983.28,1.5,76,3.36,0.0,1010.78,90.0
2018-10-16 09:30,50.630435,-96.98074,12.4,23.1,316,983.49,1.2,78,3.35,0.0,1011.01,90.0
2018-10-16 09:40,50.6304333333333,-96.9807416666667,13.4,19.5,317,983.61,1.2,78,3.34,0.0,1011.14,90.0
2018-10-16 09:50,50.6304316666667,-96.980745,14.1,29.9,323,983.79,1.1,79,3.34,0.0,1011.33,90.0
2018-10-16 10:00,50.63043,-96.980745,14.9,21.8,328,984.05,0.4,95,3.34,0.0,1011.64,90.0
2018-10-16 10:10,50.63043,-96.9807433333333,11.8,18.1,323,984.44,0.1,99,3.34,0.0,1012.07,90.0
2018-10-16 10:20,50.63043,-96.9807433333333,11.9,19.5,329,984.60,0.1,96,3.34,0.0,1012.23,90.0
2018-10-16 10:30,50.6304316666667,-96.980745,11.9,18.8,329,984.76,0.4,85,3.33,0.0,1012.40,90.0
2018-10-16 10:40,50.6304316666667,-96.980745,11.2,18.0,318,984.92,0.5,81,3.33,0.0,1012.57,90.0
2018-10-16 10:50,50.6304316666667,-96.980745,11.7,19.3,318,985.03,0.5,79,3.33,0.0,1012.69,90.0
2018-10-16 11:00,50.6304316666667,-96.9807466666667,12.2,20.9,314,985.20,0.5,77,3.33,0.0,1012.87,12.6
2018-10-16 11:10,50.6304183333333,-96.9807566666667,13.1,23.8,315,985.32,0.6,75,3.34,0.0,1013.00,12.6
2018-10-16 11:20,50.6304183333333,-96.98075,14.0,20.9,322,985.44,0.6,74,3.34,0.0,1013.15,12.6
2018-10-16 11:30,50.6304216666667,-96.9807516666667,13.6,20.8,320,985.65,0.6,74,3.34,0.0,1013.36,12.6
2018-10-16 11:40,50.6304216666667,-96.98075,11.0,16.9,318,985.97,0.5,76,3.34,0.0,1013.70,12.6
2018-10-16 11:50,50.6304183333333,-96.98076,11.6,18.7,317,986.02,0.4,77,3.34,0.0,1013.79,12.6
2018-10-16 12:00,50.63042,-96.98075,10.5,17.6,309,986.17,0.3,78,3.34,0.0,1013.97,192.6
2018-10-16 12:10,50.63042,-96.98075,8.8,16.1,306,986.39,0.2,79,3.34,0.0,1014.19,192.6
2018-10-16 12:20,50.630425,-96.98075,10.0,15.2,304,986.47,0.2,77,3.35,0.0,1014.27,192.6
2018-10-16 12:30,50.6304333333333,-96.980745,10.7,17.4,312,986.64,0.2,77,3.35,0.0,1014.43,192.6
2018-10-16 12:40,50.630435,-96.98077,9.4,15.8,314,986.91,0.1,77,3.36,0.0,1014.71,192.6
2018-10-16 12:50,50.6304216666667,-96.980755,10.6,20.0,316,986.94,0.1,77,3.36,0.0,1014.75,192.6
2018-10-16 13:00,50.630425,-96.9807516666667,8.6,13.6,314,987.14,-0.0,78,3.35,0.0,1014.96,270.0
2018-10-16 13:10,50.6304283333333,-96.9807516666667,10.2,15.0,306,987.23,-0.1,79,3.36,0.0,1015.05,270.0
2018-10-16 13:20,50.6304266666667,-96.9807516666667,9.1,14.8,304,987.50,-0.2,79,3.36,0.0,1015.33,270.0
2018-10-16 13:30,50.630425,-96.9807516666667,10.1,16.4,301,987.63,-0.2,78,3.36,0.0,1015.47,270.0
2018-10-16 13:40,50.6304233333333,-96.9807516666667,10.6,16.3,306,987.76,-0.2,78,3.35,0.0,1015.61,270.0
2018-10-16 13:50,50.6304216666667,-96.9807533333333,9.6,15.8,304,988.02,-0.3,78,3.34,0.0,1015.89,270.0
2018-10-16 14:00,50.6304233333333,-96.9807583333333,9.7,17.4,305,988.24,-0.3,77,3.34,0.0,1016.12,240.8
2018-10-16 14:10,50.630425,-96.9807583333333,11.3,18.9,303,988.39,-0.3,76,3.34,0.0,1016.27,240.8
2018-10-16 14:20,50.630425,-96.9807583333333,12.5,19.9,301,988.47,-0.3,73,3.33,0.0,1016.35,240.8
2018-10-16 14:30,50.6304333333333,-96.98077,12.2,20.8,309,988.63,-0.4,73,3.33,0.0,1016.53,240.8
2018-10-16 14:40,50.6304283333333,-96.980755,12.1,18.0,309,988.77,-0.4,73,3.33,0.0,1016.68,240.8
2018-10-16 14:50,50.6304233333333,-96.980755,9.9,16.2,310,988.96,-0.4,73,3.32,0.0,1016.87,240.8
2018-10-16 15:00,50.6304216666667,-96.980755,9.7,17.7,308,989.08,-0.4,74,3.32,0.0,1017.00,270.0
2018-10-16 15:10,50.63042,-96.9807516666667,8.8,15.1,306,989.11,-0.4,76,3.32,0.0,1017.04,270.0
2018-10-16 15:20,50.6304216666667,-96.9807483333333,11.0,17.7,306,989.07,-0.4,77,3.32,0.0,1017.00,270.0
2018-10-16 15:30,50.63043,-96.9807583333333,11.5,18.7,306,989.19,-0.4,79,3.32,0.0,1017.12,270.0
2018-10-16 15:40,50.6304216666667,-96.980765,8.9,15.0,300,989.46,-0.4,81,3.32,0.0,1017.40,270.0
2018-10-16 15:50,50.6304183333333,-96.9807533333333,11.3,18.5,296,989.37,-0.5,82,3.32,0.0,1017.32,270.0
2018-10-16 16:00,50.6304183333333,-96.9807533333333,9.6,16.1,297,989.45,-0.4,80,3.33,0.0,1017.39,360.0
2018-10-16 16:10,50.63042,-96.9807666666667,9.2,14.2,298,989.46,-0.1,75,3.32,0.0,1017.38,360.0
2018-10-16 16:20,50.63041,-96.9807733333333,10.5,19.6,299,989.42,0.2,71,3.32,0.0,1017.34,360.0
2018-10-16 16:30,50.630415,-96.9807633333333,11.8,19.5,302,989.39,0.5,67,3.33,0.0,1017.29,360.0
2018-10-16 16:40,50.6304183333333,-96.9807616666667,12.2,19.1,298,989.52,0.6,66,3.33,0.0,1017.42,360.0
2018-10-16 16:50,50.6304183333333,-96.9807516666667,11.4,17.6,303,989.62,0.6,66,3.33,0.0,1017.53,360.0
2018-10-16 17:00,50.6304166666667,-96.980775,10.1,19.4,300,989.74,0.7,66,3.34,0.0,1017.63,192.6
2018-10-16 17:10,50.6304233333333,-96.9807633333333,12.8,19.8,307,989.56,0.9,64,3.34,0.0,1017.45,192.6
2018-10-16 17:20,50.630435,-96.9807433333333,12.8,21.7,302,989.62,1.1,63,3.34,0.0,1017.50,192.6
2018-10-16 17:30,50.6304333333333,-96.98075,13.5,21.9,302,989.66,1.1,64,3.34,0.0,1017.54,192.6
2018-10-16 17:40,50.6304333333333,-96.9807483333333,13.5,19.9,305,989.75,1.1,64,3.35,0.0,1017.63,192.6
2018-10-16 17:50,50.6304316666667,-96.98075,10.1,14.6,309,990.07,1.1,63,3.36,0.0,1017.95,192.6
2018-10-16 18:00,50.6304083333333,-96.9807433333333,8.6,13.5,302,990.21,1.1,62,3.36,0.0,1018.08,143.4
2018-10-16 18:10,50.6304516666667,-96.9807716666667,11.0,17.1,305,990.19,1.3,61,3.35,0.0,1018.04,143.4
2018-10-16 18:20,50.6304383333333,-96.980755,12.0,17.9,308,990.19,1.3,60,3.35,0.0,1018.03,143.4
2018-10-16 18:30,50.6304366666667,-96.98075,13.0,18.7,310,990.25,1.3,60,3.35,0.0,1018.09,143.4
2018-10-16 18:40,50.630435,-96.98075,11.9,21.1,325,990.50,1.4,60,3.34,0.0,1018.33,143.4
2018-10-16 18:50,50.630435,-96.9807533333333,12.2,18.4,325,990.51,1.3,61,3.34,0.0,1018.34,143.4
2018-10-16 19:00,50.6304316666667,-96.98075,11.3,16.3,330,990.67,1.4,62,3.34,0.0,1018.49,360.0
2018-10-16 19:10,50.63043,-96.9807483333333,10.3,14.9,323,990.70,1.4,62,3.34,0.0,1018.52,360.0
2018-10-16 19:20,50.63043,-96.9807483333333,10.1,15.4,326,990.69,1.5,62,3.34,0.0,1018.50,360.0
2018-10-16 19:30,50.63043,-96.9807483333333,11.0,18.5,318,990.65,1.6,61,3.34,0.0,1018.45,360.0
2018-10-16 19:40,50.6304283333333,-96.9807483333333,9.9,15.3,320,990.75,1.8,60,3.35,0.0,1018.54,360.0
2018-10-16 19:50,50.6304116666667,-96.9807333333333,8.0,15.5,312,990.83,1.9,60,3.35,0.0,1018.62,360.0
2018-10-16 20:00,50.6304166666667,-96.9807383333333,9.2,15.3,320,990.82,1.9,60,3.35,0.0,1018.60,90.0
2018-10-16 20:10,50.6304166666667,-96.9807416666667,8.7,15.9,310,990.84,2.0,59,3.35,0.0,1018.62,90.0
2018-10-16 20:20,50.6304166666667,-96.9807433333333,10.4,16.9,319,990.84,1.9,60,3.36,0.0,1018.62,90.0
2018-10-16 20:30,50.6304183333333,-96.9807466666667,7.9,12.6,300,991.04,2.1,61,3.36,0.0,1018.81,90.0
2018-10-16 20:40,50.6304366666667,-96.98078,8.8,15.8,302,991.01,2.3,61,3.36,0.0,1018.77,90.0
2018-10-16 20:50,50.6304233333333,-96.9807516666667,8.2,13.5,300,991.03,2.6,60,3.37,0.0,1018.78,90.0
2018-10-16 21:00,50.63043,-96.9807533333333,8.3,12.9,302,991.03,2.7,60,3.37,0.0,1018.78,336.5
2018-10-16 21:10,50.630425,-96.9807516666667,11.3,16.7,290,991.01,2.8,59,3.37,0.0,1018.74,336.5
2018-10-16 21:20,50.630425,-96.98075,10.2,14.8,307,991.03,2.8,58,3.38,0.0,1018.76,336.5
2018-10-16 21:30,50.63042,-96.9807566666667,9.6,13.7,302,990.91,3.0,57,3.38,0.0,1018.62,336.5
2018-10-16 21:40,50.630425,-96.9807516666667,7.4,11.7,301,991.11,3.1,58,3.39,0.0,1018.81,336.5
2018-10-16 21:50,50.63043,-96.98075,7.5,12.5,285,991.17,3.1,58,3.41,0.0,1018.87,336.5
2018-10-16 22:00,50.6304283333333,-96.9807516666667,9.0,13.7,285,991.07,3.1,57,3.41,0.0,1018.77,360.0
2018-10-16 22:10,50.6304266666667,-96.9807483333333,8.0,13.4,277,991.14,3.0,57,3.42,0.0,1018.84,360.0
2018-10-16 22:20,50.630425,-96.9807466666667,8.3,14.5,275,991.10,3.0,56,3.42,0.0,1018.80,360.0
2018-10-16 22:30,50.6304266666667,-96.980745,7.0,12.5,265,991.07,3.0,56,3.42,0.0,1018.75,360.0
2018-10-16 22:40,50.6304266666667,-96.9807466666667,7.1,11.9,272,991.02,3.1,56,3.44,0.0,1018.68,360.0
2018-10-16 22:50,50.6304266666667,-96.9807466666667,7.0,11.8,270,991.24,3.2,56,3.45,0.0,1018.90,360.0
2018-10-16 23:00,50.6304266666667,-96.980745,7.2,13.4,261,991.22,3.2,56,3.45,0.0,1018.87,345.5
2018-10-16 23:10,50.6304283333333,-96.9807433333333,7.4,12.5,267,991.30,3.2,57,3.45,0.0,1018.95,345.5
2018-10-16 23:20,50.63044,-96.9807333333333,5.5,9.2,276,991.43,3.1,58,3.45,0.0,1019.08,345.5
2018-10-16 23:30,50.6304366666667,-96.9807383333333,7.5,12.5,276,991.48,3.0,59,3.43,0.0,1019.14,345.5
2018-10-16 23:40,50.6304033333333,-96.98072,7.1,10.5,269,991.54,3.0,60,3.42,0.0,1019.20,345.5
2018-10-16 23:50,50.630435,-96.9807416666667,7.6,11.3,266,991.53,2.9,60,3.42,0.0,1019.19,345.5
